Hourly Data Report for October 31, 2014

All times are specified in Local Standard Time (LST). Add 1 hour to adjust for Daylight Saving Time where and when it is observed.

ARVIAT A
NUNAVUT

61°05'38.000" N
94°04'18.000" W
10.40 m
2300427
71174
YEK

Download Data

Hourly Data (October 2014)
Hourly Data Report for October 31, 2014
Temp Definition
°C
Dew Point Temp Definition
°C
Rel Hum Definition
%
Wind Dir Definition
10's deg

Wind Spd Definition
km/h
Visibility Definition
km
Stn Press Definition
kPa
Hmdx Definition


Wind Chill Definition


Weather Definition


TIME
00:00 Legend Double Dagger -13.8 -15.2 90 25 15 16.1 102.55   -21 LegendNANA
01:00 Legend Double Dagger -14.1 -15.4 90 24 17 16.1 102.51   -22 LegendNANA
02:00 Legend Double Dagger -13.7 -14.9 91 24 15 16.1 102.42   -21 LegendNANA
03:00 Legend Double Dagger -13.6 -14.8 91 23 13 16.1 102.30   -21 LegendNANA
04:00 Legend Double Dagger -11.7 -13.0 90 21 21 16.1 102.17   -20 LegendNANA
05:00 Legend Double Dagger -10.5 -12.0 89 22 17 16.1 102.11   -18 LegendNANA
06:00 Legend Double Dagger -9.7 -11.2 89 22 15 16.1 102.06   -16 LegendNANA
07:00 Legend Double Dagger -9.2 -10.7 89 25 11 16.1 101.98   -15 LegendNANA
08:00 Legend Double Dagger -8.5 -10.3 87 29 8 16.1 101.94   -13 LegendNANA
09:00 Legend Double Dagger -8.3 -10.0 88 33 13 16.1 101.91   -14 Snow
10:00 Legend Double Dagger -8.2 -9.6 90 34 11 16.1 101.87   -13 Snow
11:00 Legend Double Dagger -8.3 -9.7 90 36 13 16.1 101.85   -14 LegendNANA
12:00 Legend Double Dagger -8.3 -9.6 90 36 15 16.1 101.85   -15 LegendNANA
13:00 Legend Double Dagger -8.3 -9.6 90 35 15 16.1 101.81   -15 LegendNANA
14:00 Legend Double Dagger -6.9 -8.3 90 36 15 16.1 101.78   -13 LegendNANA
15:00 Legend Double Dagger -7.1 -7.8 95 35 18 16.1 101.82   -14 LegendNANA
16:00 Legend Double Dagger -8.2 -9.1 94 36 18 16.1 101.86   -15 LegendNANA
17:00 Legend Double Dagger -8.0 -8.5 96 36 18 16.1 101.86   -15 LegendNANA
18:00 Legend Double Dagger -7.3 -7.6 98 2 21 16.1 101.78   -15 LegendNANA
19:00 Legend Double Dagger -6.5 -6.8 98 35 15 14.5 101.77   -12 Snow
20:00 Legend Double Dagger -6.1 -6.5 97 LegendMM 8 16.1 101.78   -10 LegendNANA
21:00 Legend Double Dagger -7.2 -7.7 96 30 11 16.1 101.76   -12 LegendNANA
22:00 Legend Double Dagger -6.2 -6.6 97 33 8 16.1 101.72   -10 LegendNANA
23:00 Legend Double Dagger -4.3 -4.6 98 LegendMM 5 16.1 101.69   -6 LegendNANA

Notes on Data Quality.

Legend

  • E = Estimated
  • M = Missing
  • NA = Not Available
  • ‡ = Partner data that is not subject to review by the National Climate Archives
Date modified: